Hourly Data Report for October 30, 2020

SHEARWATER RCS
NOVA SCOTIA
Current Station Operator: ECCC - MSC

44°37'47.000" N
63°30'48.000" W
24.00 m
8205092
71264
AAW

Download Data

Hourly Data (October 2020)
Hourly Data Report for October 30, 2020
TIME
LST
Temp Definition
°C
Dew Point Definition
°C
Rel Hum Definition
%
Precip. Amount Definition
mm

Wind Dir Definition
10's deg

Wind Spd Definition
km/h
Visibility Definition
km
Stn Press Definition
kPa
Hmdx Definition


Wind Chill Definition


Weather Definition


00:00 4.2 1.4 82 0.0 1 12   100.63     LegendNANA
01:00 3.4 1.5 87 0.8 1 9   100.59     LegendNANA
02:00 3.2 2.0 91 0.3 2 14   100.56     LegendNANA
03:00 2.4 0.4 87 0.0 2 20   100.47     LegendNANA
04:00 2.3 -0.3 83 0.0 2 15   100.43     LegendNANA
05:00 2.1 -0.8 81 0.0 1 15   100.43     LegendNANA
06:00 2.4 -1.5 76 0.0 1 19   100.49     LegendNANA
07:00 2.4 -2.3 71 0.0 1 21   100.56     LegendNANA
08:00 2.6 -3.3 65 0.0 1 23   100.53     LegendNANA
09:00 2.9 -3.7 62 0.0 1 19   100.59     LegendNANA
10:00 3.2 -4.0 59 0.0 1 21   100.60     LegendNANA
11:00 3.4 -5.1 53 0.0 2 22   100.62     LegendNANA
12:00 3.5 -6.2 49 0.0 2 22   100.62     LegendNANA
13:00 3.8 -5.8 49 0.0 1 19   100.56     LegendNANA
14:00 3.7 -5.4 52 0.0 2 23   100.59     LegendNANA
15:00 3.3 -5.9 51 0.0 1 18   100.62     LegendNANA
16:00 3.1 -6.0 51 0.0 1 21   100.58     LegendNANA
17:00 2.8 -6.1 52 0.0 1 21   100.66     LegendNANA
18:00 2.6 -5.8 54 0.0 1 18   100.74     LegendNANA
19:00 2.5 -6.1 53 0.0 1 19   100.76     LegendNANA
20:00 2.4 -5.7 55 0.0 36 20   100.75     LegendNANA
21:00 2.4 -5.1 58 0.0 36 18   100.88     LegendNANA
22:00 2.2 -5.1 59 0.0 35 18   100.97     LegendNANA
23:00 2.1 -4.2 63 0.0 34 17   101.08     LegendNANA

Notes on Data Quality.

Legend

  • E = Estimated
  • M = Missing
  • NA = Not Available*
  • [empty] = Indicates an unobserved value
Date modified: